| time (UTC) | temp C | wind direction | speed KPH | gust KPH | rain 1hr cm | rain 24hr cm | rain mn cm | humidity % | barometer mb |
| 20260505112006 | 14 | 347 | 1.6 | 8.0 | 0.00 | 0.00 | 0.00 | 66 | 1014.0 |
| 20260505111506 | 13 | 343 | 1.6 | 8.0 | 0.00 | 0.00 | 0.00 | 66 | 1014.0 |
| 20260505111007 | 14 | 323 | 1.6 | 8.0 | 0.00 | 0.00 | 0.00 | 65 | 1014.1 |
| 20260505110507 | 13 | 324 | 3.2 | 8.0 | 0.00 | 0.00 | 0.00 | 64 | 1014.1 |
| 20260505102007 | 13 | 322 | 3.2 | 8.0 | 0.00 | 0.00 | 0.00 | 64 | 1014.2 |
| 20260505101506 | 14 | 308 | 1.6 | 8.0 | 0.00 | 0.00 | 0.00 | 65 | 1014.2 |
| 20260505101006 | 14 | 357 | 1.6 | 6.4 | 0.00 | 0.00 | 0.00 | 65 | 1014.1 |
| 20260505100506 | 14 | 11 | 1.6 | 4.8 | 0.00 | 0.00 | 0.00 | 67 | 1014.1 |
| 20260505100006 | 14 | 349 | 0.0 | 6.4 | 0.00 | 0.00 | 0.00 | 68 | 1014.1 |
| 20260505095527 | 13 | 72 | 0.0 | 6.4 | 0.00 | 0.00 | 0.00 | 68 | 1014.1 |
| 20260505095006 | 13 | 144 | 1.6 | 8.0 | 0.00 | 0.00 | 0.00 | 68 | 1014.2 |
| 20260505094506 | 13 | 168 | 0.0 | 8.0 | 0.00 | 0.00 | 0.00 | 69 | 1014.2 |
| 20260505094006 | 13 | 23 | 0.0 | 6.4 | 0.00 | 0.00 | 0.00 | 69 | 1014.2 |
| 20260505093506 | 13 | 22 | 1.6 | 6.4 | 0.00 | 0.00 | 0.00 | 70 | 1014.2 |
| 20260505093006 | 12 | 36 | 0.0 | 6.4 | 0.00 | 0.00 | 0.00 | 71 | 1014.2 |
| 20260505092506 | 12 | 147 | 1.6 | 6.4 | 0.00 | 0.00 | 0.00 | 72 | 1014.3 |
| 20260505092006 | 12 | 161 | 1.6 | 6.4 | 0.00 | 0.00 | 0.00 | 70 | 1014.3 |
| 20260505091506 | 12 | 98 | 0.0 | 3.2 | 0.00 | 0.00 | 0.00 | 72 | 1014.3 |
| 20260505091006 | 12 | 89 | 0.0 | 3.2 | 0.00 | 0.00 | 0.00 | 72 | 1014.3 |
| 20260505090506 | 12 | 16 | 0.0 | 3.2 | 0.00 | 0.00 | 0.00 | 73 | 1014.4 |
| 20260505090006 | 12 | 356 | 0.0 | 3.2 | 0.00 | 0.00 | 0.00 | 73 | 1014.4 |
| 20260505085506 | 12 | 161 | 0.0 | 6.4 | 0.00 | 0.00 | 0.00 | 73 | 1014.5 |
| 20260505085006 | 11 | 161 | 0.0 | 9.7 | 0.00 | 0.00 | 0.00 | 74 | 1014.5 |
| 20260505084506 | 11 | 134 | 1.6 | 9.7 | 0.00 | 0.00 | 0.00 | 75 | 1014.5 |
| 20260505084006 | 11 | 84 | 0.0 | 4.8 | 0.00 | 0.03 | 0.00 | 76 | 1014.5 |
| 20260505083507 | 11 | 142 | 1.6 | 14.5 | 0.00 | 0.03 | 0.00 | 76 | 1014.5 |
| 20260505083006 | 11 | 153 | 1.6 | 14.5 | 0.00 | 0.03 | 0.00 | 77 | 1014.5 |
| 20260505082506 | 11 | 146 | 0.0 | 12.9 | 0.00 | 0.03 | 0.00 | 78 | 1014.6 |
| 20260505082006 | 11 | 138 | 0.0 | 3.2 | 0.00 | 0.03 | 0.00 | 79 | 1014.6 |
| 20260505081506 | 11 | 156 | 0.0 | 3.2 | 0.00 | 0.03 | 0.00 | 80 | 1014.6 |
| 20260505081006 | 11 | 0 | 0.0 | 0.0 | 0.00 | 0.03 | 0.00 | 81 | 1014.6 |
| 20260505080527 | 11 | 0 | 0.0 | 0.0 | 0.00 | 0.03 | 0.00 | 82 | 1014.5 |
| 20260505080027 | 10 | 0 | 0.0 | 0.0 | 0.00 | 0.03 | 0.00 | 82 | 1014.6 |
| 20260505075506 | 10 | 0 | 0.0 | 0.0 | 0.00 | 0.03 | 0.00 | 82 | 1014.5 |
| 20260505075006 | 10 | 0 | 0.0 | 0.0 | 0.00 | 0.03 | 0.00 | 83 | 1014.5 |
| 20260505074527 | 10 | 0 | 0.0 | 0.0 | 0.00 | 0.03 | 0.00 | 83 | 1014.5 |
| 20260505074006 | 10 | 156 | 0.0 | 4.8 | 0.00 | 0.03 | 0.00 | 83 | 1014.5 |
| 20260505073506 | 10 | 156 | 0.0 | 4.8 | 0.00 | 0.03 | 0.00 | 83 | 1014.5 |
| 20260505073006 | 10 | 156 | 0.0 | 3.2 | 0.00 | 0.03 | 0.00 | 84 | 1014.4 |
| 20260505072506 | 10 | 156 | 0.0 | 4.8 | 0.00 | 0.03 | 0.00 | 84 | 1014.4 |
| 20260505072005 | 10 | 156 | 0.0 | 4.8 | 0.00 | 0.03 | 0.00 | 85 | 1014.4 |
| 20260505071505 | 10 | 156 | 0.0 | 3.2 | 0.00 | 0.03 | 0.00 | 85 | 1014.5 |
| 20260505071006 | 10 | 156 | 0.0 | 3.2 | 0.00 | 0.03 | 0.00 | 86 | 1014.5 |
| 20260505070505 | 10 | 156 | 0.0 | 3.2 | 0.00 | 0.03 | 0.00 | 87 | 1014.5 |
| 20260505070006 | 10 | 155 | 0.0 | 8.0 | 0.00 | 0.03 | 0.00 | 87 | 1014.5 |
| 20260505065506 | 10 | 155 | 0.0 | 8.0 | 0.00 | 0.03 | 0.00 | 87 | 1014.5 |
| 20260505065006 | 10 | 0 | 0.0 | 0.0 | 0.00 | 0.03 | 0.00 | 88 | 1014.5 |
| 20260505064527 | 10 | 0 | 0.0 | 0.0 | 0.00 | 0.03 | 0.00 | 88 | 1014.5 |
| 20260505064006 | 10 | 0 | 0.0 | 0.0 | 0.00 | 0.03 | 0.00 | 89 | 1014.5 |
| 20260505063505 | 10 | 0 | 0.0 | 0.0 | 0.00 | 0.03 | 0.00 | 89 | 1014.4 |
| 20260505063006 | 10 | 0 | 0.0 | 0.0 | 0.00 | 0.03 | 0.00 | 89 | 1014.4 |
| 20260505062505 | 10 | 0 | 0.0 | 0.0 | 0.00 | 0.03 | 0.00 | 90 | 1014.3 |
| 20260505062027 | 10 | 0 | 0.0 | 0.0 | 0.00 | 0.03 | 0.00 | 90 | 1014.2 |
| 20260505061526 | 10 | 189 | 0.0 | 4.8 | 0.00 | 0.03 | 0.00 | 90 | 1014.1 |
| 20260505061005 | 10 | 189 | 0.0 | 4.8 | 0.00 | 0.03 | 0.00 | 90 | 1014.1 |
| 20260505060506 | 10 | 0 | 0.0 | 0.0 | 0.00 | 0.03 | 0.00 | 90 | 1014.2 |
| 20260505060006 | 10 | 0 | 0.0 | 0.0 | 0.00 | 0.03 | 0.00 | 90 | 1014.2 |
| 20260505055505 | 10 | 0 | 0.0 | 0.0 | 0.00 | 0.03 | 0.00 | 90 | 1014.2 |
| 20260505055006 | 10 | 0 | 0.0 | 0.0 | 0.00 | 0.03 | 0.00 | 90 | 1014.2 |
| 20260505054506 | 10 | 0 | 0.0 | 0.0 | 0.00 | 0.03 | 0.00 | 90 | 1014.2 |
| 20260505054005 | 10 | 0 | 0.0 | 0.0 | 0.00 | 0.03 | 0.00 | 90 | 1014.3 |
| 20260505053505 | 10 | 0 | 0.0 | 0.0 | 0.00 | 0.03 | 0.00 | 90 | 1014.2 |
| 20260505053005 | 10 | 0 | 0.0 | 0.0 | 0.00 | 0.03 | 0.00 | 90 | 1014.2 |
| 20260505052505 | 10 | 0 | 0.0 | 0.0 | 0.00 | 0.03 | 0.00 | 90 | 1014.2 |
| 20260505052005 | 10 | 0 | 0.0 | 0.0 | 0.00 | 0.03 | 0.00 | 90 | 1014.2 |
| 20260505051526 | 10 | 345 | 0.0 | 1.6 | 0.00 | 0.03 | 0.00 | 90 | 1014.1 |
| 20260505051006 | 10 | 345 | 0.0 | 1.6 | 0.00 | 0.03 | 0.00 | 91 | 1014.1 |
| 20260505050505 | 10 | 0 | 0.0 | 0.0 | 0.00 | 0.03 | 0.00 | 91 | 1014.0 |
| 20260505041505 | 10 | 0 | 0.0 | 0.0 | 0.00 | 0.03 | 0.00 | 91 | 1014.2 |
| 20260505041005 | 10 | 0 | 0.0 | 0.0 | 0.00 | 0.03 | 0.00 | 90 | 1014.1 |
| 20260505040505 | 10 | 0 | 0.0 | 0.0 | 0.00 | 0.03 | 0.00 | 90 | 1014.1 |
| 20260505040005 | 10 | 0 | 0.0 | 0.0 | 0.00 | 0.03 | 0.00 | 90 | 1014.1 |
| 20260505035526 | 10 | 0 | 0.0 | 0.0 | 0.00 | 0.03 | 0.00 | 90 | 1014.0 |
| 20260505035005 | 10 | 0 | 0.0 | 0.0 | 0.00 | 0.03 | 0.00 | 90 | 1014.0 |
| 20260505034505 | 10 | 0 | 0.0 | 0.0 | 0.00 | 0.03 | 0.00 | 90 | 1014.0 |
| 20260505034005 | 10 | 0 | 0.0 | 0.0 | 0.00 | 0.03 | 0.00 | 90 | 1013.9 |
| 20260505033505 | 10 | 0 | 0.0 | 0.0 | 0.00 | 0.03 | 0.00 | 90 | 1013.9 |
| 20260505033005 | 10 | 0 | 0.0 | 0.0 | 0.00 | 0.03 | 0.00 | 90 | 1013.9 |
| 20260505032505 | 10 | 0 | 0.0 | 0.0 | 0.00 | 0.03 | 0.00 | 90 | 1013.9 |
| 20260505032005 | 10 | 0 | 0.0 | 0.0 | 0.00 | 0.03 | 0.00 | 90 | 1014.0 |
| 20260505031505 | 10 | 0 | 0.0 | 0.0 | 0.00 | 0.03 | 0.00 | 90 | 1014.0 |
| 20260505031005 | 10 | 0 | 0.0 | 0.0 | 0.00 | 0.03 | 0.00 | 90 | 1014.0 |
| 20260505030526 | 10 | 0 | 0.0 | 0.0 | 0.00 | 0.03 | 0.00 | 90 | 1013.9 |
| 20260505030005 | 10 | 0 | 0.0 | 0.0 | 0.00 | 0.03 | 0.00 | 90 | 1014.0 |
| 20260505025505 | 10 | 0 | 0.0 | 0.0 | 0.00 | 0.03 | 0.00 | 90 | 1014.1 |
| 20260505025026 | 10 | 0 | 0.0 | 0.0 | 0.00 | 0.03 | 0.00 | 90 | 1014.1 |
| 20260505024505 | 10 | 0 | 0.0 | 0.0 | 0.00 | 0.03 | 0.00 | 90 | 1014.2 |
| 20260505024005 | 10 | 0 | 0.0 | 0.0 | 0.00 | 0.03 | 0.00 | 90 | 1014.1 |
| 20260505023505 | 10 | 0 | 0.0 | 0.0 | 0.00 | 0.03 | 0.00 | 90 | 1014.1 |
| 20260505023005 | 10 | 0 | 0.0 | 0.0 | 0.00 | 0.03 | 0.00 | 90 | 1014.1 |
| 20260505022505 | 10 | 0 | 0.0 | 0.0 | 0.00 | 0.03 | 0.00 | 90 | 1014.1 |
| 20260505022005 | 10 | 0 | 0.0 | 0.0 | 0.00 | 0.03 | 0.00 | 90 | 1014.1 |
| 20260505021526 | 10 | 0 | 0.0 | 0.0 | 0.00 | 0.03 | 0.00 | 90 | 1014.1 |
| 20260505021005 | 10 | 0 | 0.0 | 0.0 | 0.00 | 0.03 | 0.00 | 90 | 1014.2 |
| 20260505020505 | 10 | 0 | 0.0 | 0.0 | 0.00 | 0.03 | 0.00 | 90 | 1014.2 |
| 20260505020005 | 10 | 0 | 0.0 | 0.0 | 0.00 | 0.03 | 0.00 | 90 | 1014.2 |
| 20260505015526 | 10 | 0 | 0.0 | 0.0 | 0.00 | 0.03 | 0.00 | 90 | 1014.1 |
| 20260505015005 | 10 | 0 | 0.0 | 0.0 | 0.00 | 0.03 | 0.00 | 90 | 1014.2 |
| 20260505014505 | 10 | 0 | 0.0 | 0.0 | 0.00 | 0.03 | 0.00 | 89 | 1014.2 |
| 20260505014005 | 10 | 0 | 0.0 | 0.0 | 0.00 | 0.03 | 0.00 | 89 | 1014.2 |
| 20260505013505 | 10 | 0 | 0.0 | 0.0 | 0.00 | 0.03 | 0.00 | 89 | 1014.2 |
| 20260505013026 | 10 | 0 | 0.0 | 0.0 | 0.00 | 0.03 | 0.00 | 89 | 1014.2 |
| 20260505012505 | 10 | 0 | 0.0 | 0.0 | 0.00 | 0.03 | 0.00 | 89 | 1014.2 |
| 20260505012005 | 10 | 0 | 0.0 | 0.0 | 0.00 | 0.03 | 0.00 | 89 | 1014.2 |
| 20260505011504 | 10 | 0 | 0.0 | 0.0 | 0.00 | 0.03 | 0.00 | 89 | 1014.3 |
| 20260505011026 | 10 | 0 | 0.0 | 0.0 | 0.00 | 0.03 | 0.00 | 89 | 1014.2 |
| 20260505010505 | 10 | 0 | 0.0 | 0.0 | 0.00 | 0.03 | 0.00 | 89 | 1014.3 |
| 20260505010026 | 10 | 0 | 0.0 | 0.0 | 0.00 | 0.03 | 0.00 | 89 | 1014.3 |
| 20260505005505 | 10 | 0 | 0.0 | 0.0 | 0.00 | 0.03 | 0.00 | 89 | 1014.4 |
| 20260505005025 | 10 | 0 | 0.0 | 0.0 | 0.00 | 0.03 | 0.00 | 89 | 1014.4 |
| 20260505004505 | 10 | 0 | 0.0 | 0.0 | 0.00 | 0.03 | 0.00 | 89 | 1014.4 |
| 20260505004004 | 10 | 0 | 0.0 | 0.0 | 0.00 | 0.03 | 0.00 | 89 | 1014.4 |
| 20260505003505 | 10 | 0 | 0.0 | 0.0 | 0.00 | 0.03 | 0.00 | 88 | 1014.4 |
| 20260505003005 | 10 | 0 | 0.0 | 0.0 | 0.00 | 0.03 | 0.00 | 88 | 1014.4 |
| 20260505002505 | 11 | 0 | 0.0 | 0.0 | 0.00 | 0.03 | 0.00 | 88 | 1014.5 |
| 20260505002005 | 11 | 0 | 0.0 | 0.0 | 0.00 | 0.03 | 0.00 | 88 | 1014.5 |
| 20260505001504 | 11 | 0 | 0.0 | 0.0 | 0.00 | 0.03 | 0.00 | 88 | 1014.5 |
| 20260505001005 | 11 | 0 | 0.0 | 0.0 | 0.00 | 0.03 | 0.00 | 88 | 1014.6 |
| 20260505000505 | 11 | 185 | 0.0 | 1.6 | 0.00 | 0.03 | 0.00 | 89 | 1014.6 |
| 20260505000004 | 11 | 185 | 0.0 | 1.6 | 0.00 | 0.03 | 0.00 | 88 | 1014.6 |
| 20260504235505 | 11 | 0 | 0.0 | 0.0 | 0.00 | 0.03 | 0.00 | 89 | 1014.7 |
| 20260504235025 | 11 | 0 | 0.0 | 0.0 | 0.00 | 0.03 | 0.00 | 88 | 1014.7 |
| 20260504234505 | 11 | 0 | 0.0 | 0.0 | 0.00 | 0.03 | 0.00 | 88 | 1014.7 |
| 20260504234005 | 11 | 0 | 0.0 | 0.0 | 0.00 | 0.03 | 0.00 | 88 | 1014.7 |
| 20260504233504 | 11 | 184 | 0.0 | 1.6 | 0.00 | 0.03 | 0.00 | 88 | 1014.7 |
| 20260504233004 | 11 | 184 | 0.0 | 1.6 | 0.00 | 0.03 | 0.00 | 88 | 1014.6 |
| 20260504232505 | 11 | 0 | 0.0 | 0.0 | 0.00 | 0.03 | 0.00 | 88 | 1014.6 |
| 20260504232004 | 11 | 186 | 0.0 | 1.6 | 0.00 | 0.03 | 0.00 | 88 | 1014.6 |
| 20260504231504 | 11 | 186 | 0.0 | 1.6 | 0.00 | 0.03 | 0.00 | 87 | 1014.5 |
| 20260504231004 | 11 | 0 | 0.0 | 0.0 | 0.00 | 0.03 | 0.00 | 88 | 1014.5 |
| 20260504230505 | 11 | 0 | 0.0 | 0.0 | 0.00 | 0.03 | 0.00 | 87 | 1014.5 |
| 20260504230007 | 11 | 0 | 0.0 | 0.0 | 0.00 | 0.03 | 0.00 | 87 | 1014.5 |
| 20260504225505 | 11 | 0 | 0.0 | 0.0 | 0.00 | 0.03 | 0.03 | 87 | 1014.5 |
| 20260504225004 | 11 | 0 | 0.0 | 0.0 | 0.00 | 0.03 | 0.03 | 87 | 1014.6 |
| 20260504224505 | 11 | 0 | 0.0 | 0.0 | 0.00 | 0.03 | 0.03 | 88 | 1014.5 |
| 20260504224005 | 11 | 0 | 0.0 | 0.0 | 0.00 | 0.03 | 0.03 | 87 | 1014.6 |
| 20260504223525 | 11 | 0 | 0.0 | 0.0 | 0.00 | 0.03 | 0.03 | 87 | 1014.7 |
| 20260504223005 | 11 | 0 | 0.0 | 0.0 | 0.00 | 0.03 | 0.03 | 87 | 1014.7 |
| 20260504222504 | 11 | 0 | 0.0 | 0.0 | 0.00 | 0.03 | 0.03 | 87 | 1014.7 |
| 20260504222004 | 11 | 0 | 0.0 | 0.0 | 0.00 | 0.03 | 0.03 | 87 | 1014.7 |
| 20260504221526 | 11 | 0 | 0.0 | 0.0 | 0.00 | 0.03 | 0.03 | 87 | 1014.7 |
| 20260504221026 | 11 | 0 | 0.0 | 0.0 | 0.00 | 0.03 | 0.03 | 87 | 1014.7 |
| 20260504220504 | 11 | 0 | 0.0 | 0.0 | 0.00 | 0.03 | 0.03 | 87 | 1014.7 |
| 20260504220005 | 11 | 0 | 0.0 | 0.0 | 0.00 | 0.03 | 0.03 | 87 | 1014.7 |
| 20260504215504 | 11 | 0 | 0.0 | 0.0 | 0.00 | 0.03 | 0.03 | 86 | 1014.7 |
| 20260504215025 | 11 | 0 | 0.0 | 0.0 | 0.00 | 0.03 | 0.03 | 86 | 1014.6 |
| 20260504214504 | 11 | 0 | 0.0 | 0.0 | 0.00 | 0.03 | 0.03 | 86 | 1014.7 |
| 20260504214004 | 11 | 0 | 0.0 | 0.0 | 0.00 | 0.03 | 0.03 | 86 | 1014.7 |
| 20260504213504 | 11 | 0 | 0.0 | 0.0 | 0.00 | 0.03 | 0.03 | 86 | 1014.6 |
| 20260504213004 | 11 | 0 | 0.0 | 0.0 | 0.00 | 0.03 | 0.03 | 86 | 1014.6 |
| 20260504212504 | 11 | 281 | 0.0 | 3.2 | 0.00 | 0.03 | 0.03 | 85 | 1014.6 |
| 20260504212025 | 11 | 281 | 0.0 | 3.2 | 0.00 | 0.03 | 0.03 | 85 | 1014.6 |
| 20260504211504 | 11 | 0 | 0.0 | 0.0 | 0.00 | 0.03 | 0.03 | 85 | 1014.7 |
| 20260504211004 | 12 | 0 | 0.0 | 0.0 | 0.00 | 0.03 | 0.03 | 85 | 1014.7 |
| 20260504210504 | 12 | 0 | 0.0 | 0.0 | 0.00 | 0.03 | 0.03 | 85 | 1014.7 |
| 20260504210025 | 12 | 0 | 0.0 | 0.0 | 0.00 | 0.03 | 0.03 | 84 | 1014.8 |
| 20260504205504 | 12 | 0 | 0.0 | 0.0 | 0.00 | 0.03 | 0.03 | 84 | 1014.9 |
| 20260504205004 | 12 | 0 | 0.0 | 0.0 | 0.00 | 0.03 | 0.03 | 84 | 1014.8 |
| 20260504204504 | 12 | 0 | 0.0 | 0.0 | 0.00 | 0.03 | 0.03 | 84 | 1014.7 |
| 20260504204004 | 12 | 0 | 0.0 | 0.0 | 0.00 | 0.03 | 0.03 | 84 | 1014.8 |
| 20260504203504 | 12 | 0 | 0.0 | 0.0 | 0.00 | 0.03 | 0.03 | 83 | 1014.7 |
| 20260504203025 | 12 | 0 | 0.0 | 0.0 | 0.00 | 0.03 | 0.03 | 83 | 1014.6 |
| 20260504202504 | 13 | 0 | 0.0 | 0.0 | 0.00 | 0.03 | 0.03 | 83 | 1014.6 |
| 20260504202004 | 13 | 0 | 0.0 | 0.0 | 0.00 | 0.03 | 0.03 | 83 | 1014.6 |
| 20260504201525 | 13 | 0 | 0.0 | 0.0 | 0.00 | 0.03 | 0.03 | 82 | 1014.6 |
| 20260504201025 | 13 | 0 | 0.0 | 0.0 | 0.00 | 0.03 | 0.03 | 82 | 1014.6 |
| 20260504200504 | 13 | 0 | 0.0 | 0.0 | 0.00 | 0.03 | 0.03 | 82 | 1014.5 |
| 20260504200004 | 13 | 0 | 0.0 | 0.0 | 0.00 | 0.03 | 0.03 | 81 | 1014.5 |
| 20260504195504 | 13 | 0 | 0.0 | 0.0 | 0.00 | 0.03 | 0.03 | 81 | 1014.4 |
| 20260504195004 | 13 | 0 | 0.0 | 0.0 | 0.00 | 0.03 | 0.03 | 80 | 1014.4 |
| 20260504194504 | 13 | 323 | 0.0 | 3.2 | 0.00 | 0.03 | 0.03 | 80 | 1014.3 |
| 20260504194025 | 13 | 323 | 0.0 | 3.2 | 0.00 | 0.03 | 0.03 | 79 | 1014.4 |
| 20260504193504 | 13 | 0 | 0.0 | 0.0 | 0.00 | 0.03 | 0.03 | 78 | 1014.4 |
| 20260504193004 | 14 | 323 | 0.0 | 3.2 | 0.00 | 0.03 | 0.03 | 77 | 1014.3 |
| 20260504192504 | 14 | 311 | 0.0 | 3.2 | 0.00 | 0.03 | 0.03 | 77 | 1014.2 |
| 20260504192004 | 15 | 274 | 1.6 | 3.2 | 0.00 | 0.03 | 0.03 | 75 | 1014.2 |
| 20260504191504 | 15 | 247 | 0.0 | 6.4 | 0.00 | 0.03 | 0.03 | 74 | 1014.1 |
| 20260504191004 | 16 | 228 | 0.0 | 6.4 | 0.00 | 0.03 | 0.03 | 73 | 1014.1 |
| 20260504190504 | 16 | 109 | 0.0 | 1.6 | 0.00 | 0.03 | 0.03 | 72 | 1014.0 |
| 20260504190004 | 16 | 0 | 0.0 | 0.0 | 0.00 | 0.03 | 0.03 | 72 | 1013.9 |
| 20260504185504 | 16 | 0 | 0.0 | 0.0 | 0.00 | 0.03 | 0.03 | 71 | 1013.8 |
| 20260504185004 | 16 | 0 | 0.0 | 0.0 | 0.00 | 0.03 | 0.03 | 70 | 1013.8 |
| 20260504184504 | 16 | 0 | 0.0 | 0.0 | 0.00 | 0.03 | 0.03 | 69 | 1013.8 |
| 20260504184004 | 16 | 0 | 0.0 | 0.0 | 0.00 | 0.03 | 0.03 | 70 | 1013.7 |
| 20260504183504 | 16 | 111 | 0.0 | 1.6 | 0.00 | 0.03 | 0.03 | 70 | 1013.7 |
| 20260504183004 | 16 | 107 | 0.0 | 3.2 | 0.00 | 0.03 | 0.03 | 70 | 1013.7 |
| 20260504182504 | 16 | 107 | 0.0 | 3.2 | 0.00 | 0.03 | 0.03 | 70 | 1013.6 |
| 20260504182004 | 16 | 106 | 0.0 | 1.6 | 0.00 | 0.03 | 0.03 | 70 | 1013.6 |
| 20260504181525 | 16 | 105 | 0.0 | 3.2 | 0.00 | 0.03 | 0.03 | 71 | 1013.6 |
| 20260504181004 | 16 | 102 | 0.0 | 3.2 | 0.00 | 0.03 | 0.03 | 71 | 1013.5 |
| 20260504180504 | 16 | 93 | 0.0 | 4.8 | 0.00 | 0.03 | 0.03 | 71 | 1013.5 |
| 20260504180004 | 16 | 101 | 0.0 | 4.8 | 0.00 | 0.03 | 0.03 | 72 | 1013.5 |
| 20260504175504 | 16 | 133 | 0.0 | 4.8 | 0.00 | 0.03 | 0.03 | 73 | 1013.5 |
| 20260504175004 | 16 | 144 | 0.0 | 6.4 | 0.00 | 0.03 | 0.03 | 73 | 1013.5 |
| 20260504174503 | 16 | 156 | 1.6 | 6.4 | 0.00 | 0.03 | 0.03 | 73 | 1013.5 |
| 20260504174004 | 16 | 150 | 1.6 | 9.7 | 0.00 | 0.03 | 0.03 | 73 | 1013.5 |
| 20260504173525 | 16 | 143 | 1.6 | 9.7 | 0.00 | 0.03 | 0.03 | 73 | 1013.4 |
| 20260504173004 | 16 | 168 | 1.6 | 9.7 | 0.00 | 0.03 | 0.03 | 74 | 1013.5 |
| 20260504172504 | 16 | 177 | 1.6 | 8.0 | 0.00 | 0.03 | 0.03 | 74 | 1013.5 |
| 20260504172004 | 16 | 178 | 0.0 | 6.4 | 0.00 | 0.03 | 0.03 | 74 | 1013.6 |
| 20260504171504 | 16 | 180 | 0.0 | 11.3 | 0.00 | 0.03 | 0.03 | 75 | 1013.6 |
| 20260504171004 | 16 | 183 | 0.0 | 11.3 | 0.00 | 0.03 | 0.03 | 76 | 1013.7 |
| 20260504170503 | 16 | 184 | 0.0 | 4.8 | 0.00 | 0.03 | 0.03 | 77 | 1013.7 |
| 20260504151003 | 15 | 163 | 1.6 | 8.0 | 0.00 | 0.03 | 0.03 | 82 | 1014.1 |
| 20260504150503 | 15 | 168 | 0.0 | 8.0 | 0.00 | 0.03 | 0.03 | 82 | 1014.0 |
| 20260504141007 | 14 | 152 | 0.0 | 3.2 | 0.00 | 0.69 | 0.03 | 85 | 1014.1 |
| 20260504140507 | 14 | 154 | 0.0 | 3.2 | 0.00 | 0.76 | 0.03 | 86 | 1014.2 |
| 20260504130527 | 13 | 333 | 0.0 | 8.0 | 0.00 | 0.79 | 0.03 | 88 | 1014.1 |